Date String (YYYY-MM-DD hh:mm:ss) UTC,Instrument flags,Ambient pressure (hPa),Sample flow (lpm),Bypass flow (lpm),Sample temperature (°C),Ambient temperature (°C),ASC tube jacket temperature (°C),LED temperature (°C),Box temperature (°C),Sample RH (%),Span deviation,Mass concentration (μg/m³),Mass concentration (μg/m³),Mass concentration (μg/m³)
DateTimeUTC,F1_M11,P_M11,Q1_M11,Q2_M11,T1_M11,T2_M11,T3_M11,T4_M11,T5_M11,U1_M11,ZSPAN_M11,X0_M11,X2_M11,X1_M11
2022-08-02 17:00:00,,0826.2,5.01,0.00,29.4,27.5,00.0,38.1,31.1,28.3,0000.0,0005.92,0004.24,0004.04
2022-08-02 17:01:00,,0826.2,4.99,0.00,29.4,27.7,00.0,38.1,31.2,27.9,0000.0,0005.78,0004.26,0004.08
2022-08-02 17:02:00,,0826.2,5.00,0.00,29.4,27.9,00.0,38.1,31.3,26.9,0000.0,0005.79,0004.27,0004.10
2022-08-02 17:03:00,,0826.2,5.00,0.00,29.4,28.1,00.0,38.2,31.3,26.8,0000.0,0005.85,0004.27,0004.10
2022-08-02 17:04:00,,0826.3,5.00,0.00,29.5,28.1,00.0,38.2,31.4,26.7,0000.0,0005.87,0004.27,0004.10
2022-08-02 17:05:00,,0826.2,5.00,0.00,29.4,27.5,00.0,38.1,31.3,27.2,0000.0,0005.96,0004.28,0004.09
2022-08-02 17:06:00,,0826.2,4.99,0.00,29.4,27.2,00.0,38.1,31.2,26.5,0000.0,0006.16,0004.33,0004.11
2022-08-02 17:07:00,,0826.2,5.02,0.00,29.4,27.2,00.0,38.1,31.2,26.4,0000.0,0006.97,0004.35,0004.12
2022-08-02 17:08:00,,0826.2,4.99,0.00,29.3,27.4,00.0,38.1,31.1,26.8,0000.0,0007.41,0004.39,0004.15
2022-08-02 17:09:00,,0826.2,5.00,0.00,29.3,27.5,00.0,38.1,31.1,26.7,0000.0,0007.38,0004.41,0004.17
2022-08-02 17:10:00,,0826.2,4.99,0.00,29.3,27.7,00.0,38.1,31.2,26.8,0000.0,0007.39,0004.42,0004.18
2022-08-02 17:11:00,,0826.2,5.00,0.00,29.4,27.9,00.0,38.1,31.3,27.0,0000.0,0007.33,0004.44,0004.20
2022-08-02 17:12:00,,0826.2,5.00,0.00,29.4,28.1,00.0,38.1,31.3,26.8,0000.0,0007.35,0004.46,0004.21
2022-08-02 17:13:00,,0826.2,4.99,0.00,29.4,28.1,00.0,38.1,31.4,26.5,0000.0,0007.30,0004.47,0004.24
2022-08-02 17:14:00,,0826.2,5.01,0.00,29.4,27.6,00.0,38.1,31.3,26.5,0000.0,0007.27,0004.48,0004.27
2022-08-02 17:15:00,,0826.2,4.99,0.00,29.4,27.3,00.0,38.1,31.2,26.4,0000.0,0007.23,0004.48,0004.28
2022-08-02 17:16:00,,0826.1,5.01,0.00,29.4,27.3,00.0,38.1,31.2,26.4,0000.0,0007.19,0004.49,0004.29
2022-08-02 17:17:00,,0826.2,4.98,0.00,29.3,27.5,00.0,38.1,31.1,26.4,0000.0,0006.97,0004.44,0004.28
2022-08-02 17:18:00,,0826.2,5.00,0.00,29.3,27.6,00.0,38.1,31.2,26.4,0000.0,0006.18,0004.41,0004.25
2022-08-02 17:19:00,,0826.1,5.01,0.00,29.4,27.8,00.0,38.1,31.2,26.7,0000.0,0006.37,0004.39,0004.23
2022-08-02 17:20:00,,0826.2,5.00,0.00,29.4,28.0,00.0,38.1,31.3,26.3,0000.0,0006.46,0004.38,0004.21
2022-08-02 17:21:00,,0826.2,5.00,0.00,29.4,28.0,00.0,38.1,31.3,25.7,0000.0,0006.49,0004.40,0004.22
2022-08-02 17:22:00,,0826.2,4.99,0.00,29.4,27.6,00.0,38.1,31.2,24.5,0000.0,0006.62,0004.44,0004.26
2022-08-02 17:23:00,,0826.2,5.00,0.00,29.4,27.2,00.0,38.1,31.2,24.2,0000.0,0006.71,0004.47,0004.29
2022-08-02 17:24:00,,0826.2,5.00,0.00,29.3,27.2,00.0,38.1,31.1,23.9,0000.0,0006.91,0004.52,0004.31
2022-08-02 17:25:00,,0826.2,5.00,0.00,29.3,27.4,00.0,38.0,31.0,23.9,0000.0,0007.06,0004.56,0004.35
2022-08-02 17:26:00,,0826.2,5.00,0.00,29.3,27.6,00.0,38.0,31.1,24.1,0000.0,0007.33,0004.62,0004.40
2022-08-02 17:27:00,,0826.2,5.01,0.00,29.3,27.8,00.0,38.1,31.2,23.8,0000.0,0007.40,0004.67,0004.44
2022-08-02 17:28:00,,0826.2,5.00,0.00,29.3,27.9,00.0,38.1,31.3,23.4,0000.0,0007.46,0004.71,0004.48
2022-08-02 17:29:00,,0826.2,5.00,0.00,29.4,28.1,00.0,38.1,31.3,24.3,0000.0,0007.49,0004.75,0004.54
2022-08-02 17:30:00,,0826.2,5.00,0.00,29.4,28.1,00.0,38.1,31.3,24.1,0000.0,0007.38,0004.78,0004.58
2022-08-02 17:31:00,,0826.2,4.99,0.00,29.4,27.6,00.0,38.1,31.2,24.0,0001.9,0007.99,0004.82,0004.63
2022-08-02 17:32:00,,0826.2,5.01,0.00,29.4,27.2,00.0,38.1,31.2,24.8,0002.1,0008.68,0004.85,0004.65
2022-08-02 17:33:00,,0826.2,4.99,0.00,29.3,27.3,00.0,38.1,31.2,24.8,0000.4,0008.71,0004.86,0004.65
2022-08-02 17:34:00,,0826.2,5.01,0.00,29.3,27.4,00.0,38.0,31.1,24.4,0000.0,0008.71,0004.86,0004.65
2022-08-02 17:35:00,,0826.2,4.99,0.00,29.3,27.6,00.0,38.0,31.1,24.9,0000.0,0009.01,0004.85,0004.64
2022-08-02 17:36:00,,0826.2,5.01,0.00,29.3,27.8,00.0,38.0,31.2,25.7,0000.0,0009.03,0004.81,0004.61
2022-08-02 17:37:00,,0826.2,4.99,0.00,29.4,28.0,00.0,38.1,31.3,25.3,0000.0,0009.10,0004.76,0004.57
2022-08-02 17:38:00,,0826.2,5.00,0.00,29.4,28.0,00.0,38.1,31.3,25.5,0000.0,0009.04,0004.72,0004.53
2022-08-02 17:39:00,,0826.1,5.01,0.00,29.4,27.5,00.0,38.1,31.2,25.8,0000.0,0009.06,0004.68,0004.50
2022-08-02 17:40:00,,0826.0,4.99,0.00,29.3,27.2,00.0,38.0,31.1,25.7,0000.0,0009.06,0004.64,0004.45
2022-08-02 17:41:00,,0826.0,5.00,0.00,29.3,27.2,00.0,38.0,31.1,26.0,0000.0,0008.77,0004.61,0004.42
2022-08-02 17:42:00,,0826.0,4.99,0.00,29.3,27.3,00.0,38.0,31.1,26.4,0000.0,0008.15,0004.58,0004.39
2022-08-02 17:43:00,,0825.9,5.00,0.00,29.3,27.5,00.0,38.0,31.1,26.6,0000.0,0007.48,0004.54,0004.36
2022-08-02 17:44:00,,0826.0,5.00,0.00,29.3,27.7,00.0,38.0,31.1,26.9,0000.0,0007.40,0004.50,0004.31
2022-08-02 17:45:00,,0826.0,5.00,0.00,29.3,27.9,00.0,38.0,31.2,26.1,0000.0,0007.36,0004.45,0004.27
2022-08-02 17:46:00,,0826.0,5.01,0.00,29.4,28.1,00.0,38.1,31.3,26.2,0000.0,0006.68,0004.40,0004.24
2022-08-02 17:47:00,,0826.0,4.99,0.00,29.4,28.3,00.0,38.1,31.4,26.1,0000.0,0006.96,0004.37,0004.20
2022-08-02 17:48:00,,0826.0,5.00,0.00,29.4,28.1,00.0,38.1,31.3,25.7,0000.0,0007.79,0004.38,0004.20
2022-08-02 17:49:00,,0826.0,5.01,0.00,29.4,27.5,00.0,38.1,31.2,25.5,0000.0,0007.86,0004.40,0004.22
2022-08-02 17:50:00,,0826.0,4.99,0.00,29.4,27.3,00.0,38.1,31.2,25.6,0000.0,0007.82,0004.41,0004.23
2022-08-02 17:51:00,,0826.0,5.01,0.00,29.3,27.4,00.0,38.1,31.2,25.4,0000.0,0007.83,0004.43,0004.24
2022-08-02 17:52:00,,0826.0,4.99,0.00,29.3,27.6,00.0,38.0,31.1,25.3,0000.0,0007.89,0004.45,0004.24
2022-08-02 17:53:00,,0826.0,4.99,0.00,29.3,27.8,00.0,38.1,31.2,25.2,0000.0,0007.90,0004.46,0004.27
2022-08-02 17:54:00,,0826.0,5.00,0.00,29.4,28.0,00.0,38.1,31.3,25.1,0000.0,0007.93,0004.50,0004.31
2022-08-02 17:55:00,,0826.0,5.01,0.00,29.4,28.2,00.0,38.1,31.3,23.9,0000.0,0007.98,0004.56,0004.36
2022-08-02 17:56:00,,0826.0,4.99,0.00,29.4,28.0,00.0,38.1,31.3,24.4,0000.0,0008.09,0004.64,0004.44
2022-08-02 17:57:00,,0826.0,5.00,0.00,29.4,27.4,00.0,38.1,31.2,24.2,0000.0,0008.22,0004.70,0004.50
2022-08-02 17:58:00,,0825.9,4.99,0.00,29.4,27.3,00.0,38.1,31.2,24.5,0000.0,0008.01,0004.76,0004.56
2022-08-02 17:59:00,,0826.0,5.00,0.00,29.3,27.4,00.0,38.0,31.1,24.7,0000.0,0006.99,0004.77,0004.58
